TimeEDT,TemperatureF,Dew PointF,Humidity,Sea Level PressureIn,VisibilityMPH,Wind Direction,Wind SpeedMPH,Gust SpeedMPH,PrecipitationIn,Events,Conditions,WindDirDegrees,DateUTC
12:17 AM,66.2,64.4,94,30.14,1.8,SW,3.5,-,N/A,,Partly Cloudy,230,2007-07-18 04:17:00
12:40 AM,66.2,64.4,94,30.14,3.0,WSW,3.5,-,N/A,,Partly Cloudy,240,2007-07-18 04:40:00
12:54 AM,66.9,64.9,93,30.06,5.0,Calm,Calm,-,N/A,,Mostly Cloudy,0,2007-07-18 04:54:00
1:15 AM,66.2,64.4,94,30.14,5.0,Calm,Calm,-,N/A,,Scattered Clouds,0,2007-07-18 05:15:00
1:54 AM,66.9,64.9,93,30.05,6.0,Calm,Calm,-,N/A,,Mostly Cloudy,0,2007-07-18 05:54:00
2:08 AM,66.2,64.4,94,30.13,1.8,NNW,3.5,-,N/A,,Mostly Cloudy,340,2007-07-18 06:08:00
2:16 AM,66.2,64.4,94,30.12,1.0,NNW,4.6,-,N/A,,Mostly Cloudy,340,2007-07-18 06:16:00
2:21 AM,66.2,64.4,94,30.13,2.0,Calm,Calm,-,N/A,,Mostly Cloudy,0,2007-07-18 06:21:00
2:29 AM,66.2,64.4,94,30.13,5.0,NNW,3.5,-,N/A,,Mostly Cloudy,330,2007-07-18 06:29:00
2:41 AM,66.2,64.4,94,30.12,6.0,North,6.9,-,N/A,,Scattered Clouds,350,2007-07-18 06:41:00
2:54 AM,66.9,64.9,93,30.04,7.0,North,4.6,-,N/A,,Scattered Clouds,350,2007-07-18 06:54:00
3:02 AM,66.2,64.4,94,30.12,7.0,NNW,3.5,-,N/A,,Mostly Cloudy,340,2007-07-18 07:02:00
3:47 AM,66.2,64.4,94,30.13,5.0,Calm,Calm,-,N/A,,Mostly Cloudy,0,2007-07-18 07:47:00
3:54 AM,66.0,64.9,96,30.05,4.0,Calm,Calm,-,N/A,,Mostly Cloudy,0,2007-07-18 07:54:00
4:09 AM,66.2,64.4,94,30.12,2.0,Calm,Calm,-,N/A,,Overcast,0,2007-07-18 08:09:00
4:34 AM,66.2,64.4,94,30.13,1.8,West,3.5,-,N/A,,Overcast,260,2007-07-18 08:34:00
4:41 AM,66.2,64.4,94,30.13,3.0,Calm,Calm,-,N/A,,Overcast,0,2007-07-18 08:41:00
4:54 AM,66.0,64.0,93,30.05,3.0,Calm,Calm,-,N/A,,Overcast,0,2007-07-18 08:54:00
5:09 AM,66.2,64.4,94,30.13,5.0,Calm,Calm,-,N/A,,Overcast,0,2007-07-18 09:09:00
5:30 AM,66.2,64.4,94,30.13,1.5,Calm,Calm,-,N/A,,Overcast,0,2007-07-18 09:30:00
5:35 AM,64.4,64.4,100,30.13,0.8,Calm,Calm,-,N/A,,Overcast,0,2007-07-18 09:35:00
5:54 AM,64.9,64.0,97,30.06,1.5,NNW,5.8,-,N/A,,Overcast,330,2007-07-18 09:54:00
6:01 AM,66.2,64.4,94,30.13,1.0,NNW,4.6,-,N/A,,Overcast,340,2007-07-18 10:01:00
6:13 AM,66.2,64.4,94,30.13,0.8,NNW,5.8,-,N/A,,Overcast,330,2007-07-18 10:13:00
6:21 AM,66.2,64.4,94,30.13,1.5,NNW,6.9,-,N/A,,Overcast,330,2007-07-18 10:21:00
6:29 AM,66.2,64.4,94,30.14,3.0,NW,5.8,-,N/A,,Overcast,320,2007-07-18 10:29:00
6:43 AM,64.4,64.4,100,30.14,3.0,NNW,8.1,-,N/A,,Mostly Cloudy,330,2007-07-18 10:43:00
6:54 AM,64.9,64.0,97,30.08,4.0,NNW,4.6,-,N/A,,Mostly Cloudy,330,2007-07-18 10:54:00
7:05 AM,66.2,64.4,94,30.15,4.0,NNW,5.8,-,N/A,,Scattered Clouds,330,2007-07-18 11:05:00
7:14 AM,66.2,64.4,94,30.15,4.0,North,4.6,-,N/A,,Mostly Cloudy,360,2007-07-18 11:14:00
7:26 AM,66.2,64.4,94,30.15,5.0,NW,3.5,-,N/A,,Scattered Clouds,320,2007-07-18 11:26:00
7:46 AM,66.2,64.4,94,30.16,2.5,Variable,3.5,-,N/A,,Mostly Cloudy,0,2007-07-18 11:46:00
7:54 AM,66.9,64.0,90,30.09,2.5,Calm,Calm,-,N/A,,Mostly Cloudy,0,2007-07-18 11:54:00
7:59 AM,68.0,64.4,88,30.16,6.0,Calm,Calm,-,N/A,,Scattered Clouds,0,2007-07-18 11:59:00
8:54 AM,71.1,64.0,78,30.10,10.0,NNE,5.8,-,N/A,,Partly Cloudy,20,2007-07-18 12:54:00
9:54 AM,75.9,64.0,67,30.09,10.0,NNW,10.4,-,N/A,,Clear,340,2007-07-18 13:54:00
10:54 AM,77.0,64.0,64,30.09,10.0,NNW,10.4,-,N/A,,Partly Cloudy,330,2007-07-18 14:54:00
11:54 AM,78.1,64.9,64,30.10,10.0,NNW,11.5,-,N/A,,Mostly Cloudy,330,2007-07-18 15:54:00
12:54 PM,80.1,64.9,60,30.09,10.0,NNW,10.4,-,N/A,,Partly Cloudy,330,2007-07-18 16:54:00
1:54 PM,82.0,64.9,56,30.06,10.0,North,10.4,-,N/A,,Clear,350,2007-07-18 17:54:00
2:54 PM,82.0,64.0,54,30.05,10.0,NNW,9.2,-,N/A,,Scattered Clouds,340,2007-07-18 18:54:00
3:54 PM,84.0,63.0,49,30.04,10.0,NNW,10.4,-,N/A,,Partly Cloudy,340,2007-07-18 19:54:00
4:54 PM,73.9,63.0,68,30.06,8.0,NW,16.1,-,0.00,Rain,Light Rain,320,2007-07-18 20:54:00
5:54 PM,71.1,62.1,73,30.05,10.0,North,9.2,-,0.02,Rain,Light Rain,350,2007-07-18 21:54:00
6:54 PM,72.0,61.0,68,30.05,10.0,Calm,Calm,-,0.00,Rain,Light Rain,0,2007-07-18 22:54:00
7:54 PM,71.1,64.0,78,30.05,10.0,WNW,3.5,-,0.00,,Clear,290,2007-07-18 23:54:00
8:54 PM,66.9,64.0,90,30.04,10.0,Calm,Calm,-,N/A,,Clear,0,2007-07-19 00:54:00
9:54 PM,66.9,64.0,90,30.04,10.0,NW,5.8,-,N/A,,Clear,320,2007-07-19 01:54:00
10:54 PM,66.0,63.0,90,30.05,10.0,Calm,Calm,-,N/A,,Clear,0,2007-07-19 02:54:00
11:54 PM,64.9,62.1,90,30.04,9.0,NW,4.6,-,N/A,,Clear,320,2007-07-19 03:54:00